Flag for U.S.A. Weather past 2 weeks in Jacksonville, North Carolina, U.S.A.

Now
42 °F

Mostly cloudy.


Feels Like: 35 °F
Forecast: 33 / 48 °F
Wind: 13 mph from Northeast

Location: Jacksonville - New River

Current Time: Dec 21, 2014 at 11:41:52 AM

Latest Report: Dec 21, 2014 at 10:56 AM


Visibility: 10 mi

Pressure: 30.31 "Hg

Humidity: 73%

Dew point: 34 °F

Location of JacksonvilleLocation

Historic Weather in Jacksonville — Graph

°F

Jacksonville temperature yesterday

Maximum temperature yesterday: 43 °F (at 11:56 AM)
Minimum temperature yesterday: 37 °F (at 9:56 PM)
Average temperature yesterday: 41 °F

Past Weeks' High & Low Weather Summary

 TemperatureHumidityPressure
High68 °F (Dec 6, 12:04 PM)97% (Dec 16, 12:56 AM)30.36 "Hg (Dec 16, 12:56 AM)
Low30 °F (Dec 11, 5:56 AM)23% (Dec 12, 1:56 PM)29.86 "Hg (Dec 9, 4:03 PM)
Average45 °F73%30.10 "Hg
* Reported Dec 6 9:56 AM — Dec 21 9:56 AM, Jacksonville, Weather by CustomWeather, © 2014

Note: Actual official high and low records may vary slightly from our data, if they occured in-between our weather recording intervals... More about our weather records

Advertising

Jacksonville weather history for previous 24 hours

 ConditionsComfort  
Time TempWeatherWind HumidityBarometerVisibility
9:56 AM
Dec 21
40 °FMostly cloudy.12 mph77%30.32 "Hg10 mi
8:56 AM39 °FMostly cloudy.13 mph82%30.29 "Hg8 mi
7:56 AM38 °FOvercast.8 mph86%30.30 "Hg7 mi
6:56 AM37 °FMostly cloudy.9 mph89%30.27 "Hg9 mi
5:56 AM36 °FOvercast.7 mph92%30.26 "Hg8 mi
4:56 AM36 °FPassing clouds.5 mph89%30.25 "Hg8 mi
3:56 AM35 °FClear.6 mph92%30.24 "Hg8 mi
2:56 AM36 °FClear.6 mph89%30.25 "Hg8 mi
1:56 AM36 °FPassing clouds.7 mph92%30.26 "Hg7 mi
12:56 AM38 °FOvercast.6 mph93%30.25 "Hg7 mi
11:56 PM
Dec 20
38 °FFog.3 mph93%30.27 "Hg6 mi
10:56 PM37 °FPassing clouds.5 mph93%30.27 "Hg7 mi
9:56 PM37 °FFog.7 mph93%30.27 "Hg6 mi
8:56 PM38 °FFog.7 mph93%30.28 "Hg6 mi
7:56 PM39 °FPassing clouds.7 mph93%30.28 "Hg7 mi
6:56 PM40 °FOvercast.6 mph89%30.28 "Hg7 mi
5:56 PM40 °FPassing clouds.8 mph89%30.27 "Hg9 mi
4:56 PM41 °FMore clouds than sun.8 mph89%30.26 "Hg8 mi
3:56 PM42 °FLight rain. Low clouds.7 mph89%30.24 "Hg8 mi
2:56 PM42 °FLight rain. Mostly cloudy.10 mph89%30.24 "Hg7 mi
1:56 PM43 °FLight rain. Mostly cloudy.9 mph86%30.24 "Hg7 mi
12:56 PM43 °FMostly cloudy.8 mph86%30.24 "Hg10 mi
11:56 AM43 °FLight rain. Overcast.6 mph86%30.27 "Hg8 mi
Weather by CustomWeather, © 2014

See weather overviewHow to use our weather pages